星链-34511 (STARLINK-34511)

导读

STARLINK-34511是美国SpaceX公司星链星座的V2 Mini卫星,于2025年8月14日由猎鹰9号火箭从加州范登堡空军基地发射,进入极地低地球轨道。它是星链全球宽带互联网组网的组成部分,助力为全球,尤其是偏远地区提供高速网络接入。此次同批次共发射24颗同型号卫星,进一步推进星链星座部署,当时整个星座在轨卫星规模已超7760颗,持续拓展全球服务覆盖。

基本信息
目录编号:
65214
目录名称:
STARLINK-34511
国际标识:
2025-176S
轨道中心:
EARTH
卫星名称:
星链-34511
卫星全名:
星链-34511 (STARLINK-34511)
卫星状态:
在轨 (已飞行386 天)
发射日期:
2025-08-14 UTC
国别 :
美国 (US)
星等 :
--
轨道信息
数据来源 国际轨道数据 AOE轨道数据
星历时间 2026-09-04T00:47:40+0800
13小时前
查看轨道信息
2026-08-30T08:00:00+0800
5天前
查看轨道信息
半长轴 6840.843km 6840.888km
偏心率 0.0001422 0.0000893
轨道倾角 53.161° 53.156°
近地点辐角 90.634° 107.452°
升交点赤经 42.411° 64.382°
平近点角 269.483° 197.558°
近地点 461.733km 462.14km
远地点 463.679km 463.362km
周期 93.848分钟 93.849分钟
每日圈数 15.343991 15.34384
详细信息
固有亮度:
5
最大亮度:
2.5
卫星平台:
Starlink V1.0
覆盖范围:
全球
运营商:
太空探索技术公司
运营商所在国:
美国
制造商(研发单位):
太空探索技术公司
制造商所在国:
美国
使用方式:
暂无
卫星简介
Starlink 计划是 SpaceX 推出的全球卫星互联网项目,通过发射低轨道卫星,为全球尤其是偏远地区提供高速、低延迟的互联网服务。自 2019 年起,Starlink 已部署数千颗卫星,旨在缩小全球数字鸿沟,推动互联网普及。该项目还为军事、航空等行业提供通信支持,带来广泛经济效益。
2D轨道图
3D轨道图
轨道高度分析图
轨道倾角分析图
轨道综合分析图
查看轨道综合分析图
交会数据列表
事件ID 空间交会对象 最接近时刻(TCA) 交会距离 交会风险概率(CRP) 交会风险指数(CRI) 操作
CDM_260905-094306-003706-521421
2026-09-05T
09:43:07+0000
0.409 km
远距离
2.136312E-4 高风险 0.82
CDM_260904-134806-059106-521422
2026-09-04T
13:48:53+0000
0.501 km
远距离
1.799857E-4 高风险 0.8
CDM_260904-183006-037106-521421
2026-09-04T
18:30:43+0000
0.659 km
远距离
8.877271E-5 中风险 0.74
CDM_260905-063906-189206-521421
2026-09-05T
06:39:58+0000
0.728 km
远距离
2.402235E-5 中风险 0.63
CDM_260904-011106-403506-521421
2026-09-04T
01:11:38+0000
0.754 km
远距离
2.307096E-5 中风险 0.62
CDM_260904-233306-003706-521421
2026-09-04T
23:33:29+0000
1.118 km
极远距离
1.126447E-5 中风险 0.56
CDM_260905-074706-059106-521421
2026-09-05T
07:47:28+0000
1.261 km
极远距离
1.043329E-5 中风险 0.55
CDM_260905-014505-469506-521421
OBJECT P (54695)
2026-09-05T
01:45:44+0000
1.187 km
极远距离
8.412696E-6 低风险 0.53
CDM_260905-041906-189206-521421
2026-09-05T
04:19:17+0000
1.101 km
极远距离
5.920621E-6 低风险 0.5
CDM_260905-092106-059106-521421
2026-09-05T
09:21:16+0000
1.849 km
极远距离
3.081256E-6 低风险 0.45